Regional Weather Roundup
Issued by NWS Upton, NY

Current Version | Previous Version | Text Only | Print | Product List | Glossary On
Versions: 1 2 3 4 5 6 7 8 9 10 11 12 13 14 15 16 17 18 19 20 21 22 23 24 25 26 27 28 29 30 31 32 33 34 35 36 37 38 39 40 41 42 43 44 45 46 47 48
000 ASUS41 KOKX 140104 RWROKX REGIONAL WEATHER ROUNDUP NATIONAL WEATHER SERVICE NEW YORK NY 800 PM EST SAT FEB 13 2016 NOTE: "FAIR" INDICATES FEW OR NO CLOUDS BELOW 12,000 FEET WITH NO SIGNIFICANT WEATHER AND/OR OBSTRUCTIONS TO VISIBILITY. NYZ071-072-176-178-NJZ106-104-140200- NEW YORK CITY METRO AREA CITY SKY/WX TMP DP RH WIND PRES REMARKS CENTRAL PARK PTCLDY 7 -15 36 NW9G26 30.31R WCI -7 LAGUARDIA APRT PTCLDY 10 -7 46 NW29G39 30.31R WCI -12 KENNEDY INTL PTCLDY 10 -17 28 NW26G35 30.30R WCI -11 NEWARK/LIBERTY PTCLDY 9 -15 33 NW22G28 30.31R WCI -11 BRNX BOT. GARD N/A 7 -13 40 N7 30.31R WCI -5 TETERBORO CLEAR 7 -16 34 NW17G26 30.31R WCI -12 $$ NYZ177-179-078>081-140200- LONG ISLAND NEW YORK CITY SKY/WX TMP DP RH WIND PRES REMARKS FARMINGDALE PTCLDY 11 -13 33 NW18G31 30.28R WCI -7 ISLIP PTCLDY 6 -14 39 NW23G36 30.25R WCI -15 SHIRLEY CLEAR 6 -13 41 NW20G38 30.26R WCI -14 RIVERHEAD N/A 9 -22 23 W12 30.21R WCI -6 WESTHAMPTON MOCLDY 5 -13 43 NW25G35 30.23R WCI -18 EAST HAMPTON CLOUDY 8 -9 46 NW16G25 30.18R WCI -10 MONTAUK POINT N/A 8 -8 48 NW18G35 30.20R WCI -11 $$ NYZ052-065-067-140200- HUDSON VALLEY CITY SKY/WX TMP DP RH WIND PRES REMARKS WHITE PLAINS PTCLDY 3 -15 43 NW26G38 30.23R WCI -21 NEWBURGH NOT AVBL MONTGOMERY CLEAR 2 -18 38 NW10G24 30.26S WCI -14 POUGHKEEPSIE CLEAR 4 -18 35 W12 30.28R WCI -12 ALBANY FLURRIES -3 -17 51 NW23G31 30.27R WCI -27 $$ NJZ001-105-106-008-010-013-015-019>022-104-140200- NEW JERSEY CITY SKY/WX TMP DP RH WIND PRES REMARKS NEWARK/LIBERTY PTCLDY 9 -15 33 NW22G28 30.31R WCI -11 TETERBORO CLEAR 7 -16 34 NW17G26 30.31R WCI -12 CALDWELL CLEAR 6 -16 35 NW15G25 30.31R WCI -12 MORRISTOWN PTCLDY 7 -11 43 NW12G23 30.31R WCI -9 SOMERVILLE CLEAR 9 -10 42 NW10G21 30.29R WCI -5 SUSSEX CLEAR 2 -15 45 VRB7 30.27R WCI -11 ANDOVER N/A 3 -14 45 N9 30.27R WCI -12 TRENTON CLEAR 11 -10 38 NW10G23 30.31R WCI -3 MILLVILLE CLEAR 14 -6 40 NW13 30.34R WCI 0 ATLANTIC CITY CLEAR 14 -11 32 NW18G26 30.33R WCI -3 WRIGHTSTOWN CLEAR 12 -13 32 NW17G33 30.28R WCI -5 TOMS RIVER PTCLDY 12 N/A N/A NW16G29 30.30R WCI -4 BELMAR CLEAR 12 -15 29 NW17G29 30.28R WCI -5 $$ PAZ047>061-062-071-140200- EASTERN PENNSYLVANIA CITY SKY/WX TMP DP RH WIND PRES REMARKS PHILADELPHIA PTCLDY 15 -12 29 NW15G22 30.36R WCI 0 ALLENTOWN CLEAR 9 -10 42 NW12G18 30.30R WCI -6 SCRANTON PTCLDY N/A N/A N/A N9 30.25R $$ CTZ002-004>006-009-010-012-RIZ004-006-007-MAZ004-011-015-140200- SOUTHERN NEW ENGLAND IN CT CITY SKY/WX TMP DP RH WIND PRES REMARKS BRADLEY INTL PTCLDY -1 -20 40 NW7 30.21R WCI -14 HARTFORD CLEAR 2 -18 38 NW14G21 30.25R WCI -16 DANBURY CLEAR 1 -20 36 NW14G23 30.24R WCI -17 WTRBRY/OXFORD PTCLDY 0 -26 29 N16G23 30.18R WCI -21 BRIDGEPORT CLEAR 5 -16 37 NW22G31 30.26R WCI -16 MERIDEN CLEAR 3 -17 39 NW15G22 30.23R WCI -16 NEW HAVEN PTCLDY 6 -11 45 NW17G25 30.24R WCI -13 CHESTER FAIR 3 -17 39 NW15 30.19R WCI -15 GROTON PTCLDY 3 -14 45 NW18G25 30.21R WCI -17 WILLIMANTIC CLEAR 2 -21 33 NW15G32 30.20R WCI -17 IN RI CITY SKY/WX TMP DP RH WIND PRES REMARKS PROVIDENCE CLEAR 2 -20 35 NW23G32 30.17R WCI -21 BLOCK ISLAND PTCLDY 5 -11 47 NW17G35 30.15R WCI -14 WESTERLY PTCLDY 3 -19 35 NW14G28 30.20R WCI -15 IN MA CITY SKY/WX TMP DP RH WIND PRES REMARKS BOSTON PTCLDY 3 -16 40 W24G36 30.10R WCI -20 WORCESTER CLEAR -5 -21 46 W16G29 30.02R WCI -27 WESTFIELD CLEAR -2 -20 42 NW17 30.19S WCI -23 PROVINCETOWN CLOUDY 10 0 63 NW28G44 30.03R WCI -12 NANTUCKET PTCLDY 10 -6 48 W26G43 30.05R WCI -11 $$ ANZ330-335-338-340-345-350-353-355-140200- COASTAL MARINE OBSERVATIONS STATION/POSITION TIME SKY/WX TEMP WIND PRES VSBY WAVE AIR SEA DIR/SP/G HT/PER (UTC) (F) (DEG/KT/KT) (MB) (MI) (FT/S) NY HARB ENTRANCE 2350 16 42 320/ 27/ 35 1023.6 6/ 5 4S FIRE IS NOT AVBL 20S FIRE ISLAND 2350 16 41 320/ 31/ 39 1022.5 9/ 7 GREAT SOUTH BAY NOT AVBL 23SW MTP 0050 13 44 300/ 29/ 37 1021.3 10/ 8 HUDSON CANYON 2350 22 48 1020.8 13/ 8 KINGS POINT 0000 11 35 1024.7 EXECUTION ROCKS NOT AVBL CENTRAL LI SOUND 0030 10 290/ 23/ 31 N/A 6/ 6 EASTERN LI SOUND 0000 12 40 310/ 23/ 31 N/A ROBBINS REEF 0000 10 1024.5 $$ >>>>>>>>>>>>>>>>>>>>>>>>>>>> KEY <<<<<<<<<<<<<<<<<<<<<<<<<<< > < > SKY/WX - SKY CONDITION/PRESENT WEATHER < > TMP - TEMPERATURE IN FAHRENHEIT < > DP - DEWPOINT IN FAHRENHEIT < > RH - RELATIVE HUMIDITY IN PERCENT < > WIND - DIRECTION AND SPEED IN MPH < > PRES - MEAN SEA LEVEL PRESSURE IN INCHES OF HG < > WCI - WIND CHILL INDEX < > VSB - VISIBILITY IN MILES < > HX - HEAT INDEX < > TC - TEMPERATURE IN CELSIUS < > VRB - VARIABLE WIND DIRECTION < > < >>>>>>>>>>>>>>>>>>>>>>>>>>>> KEY <<<<<<<<<<<<<<<<<<<<<<<<<<<

USA.gov is the U.S. government's official web portal to all federal, state and local government web resources and services.